When you browse on this site, cookies collect data to enhance your experience and personalize the content and advertising you see.
Visit our Privacy Policy to learn more. By continuing to use the site, you agree to this use of cookies and data.
  • In Romania
  • List of Countries
  • For 7 days
  • Water Temperature
  • Weather Map
  • Weather Widgets
  • user-avatar
    Login

    Hourly Weather Dunedin

    Today, 1 June, Monday

    Time Temperature Precipitation Wind Pressure Humidity
    00:00 +3°C° 0 mm 5 mps 757 mmHg 74%
    01:00 +2°C° 0 mm 5 mps 756 mmHg 74%
    02:00 +2°C° 0 mm 5 mps 756 mmHg 74%
    03:00 +2°C° 0 mm 5 mps 755 mmHg 73%
    04:00 +2°C° 0 mm 5 mps 755 mmHg 73%
    05:00 +2°C° 0 mm 5 mps 755 mmHg 72%
    06:00 +2°C° 0 mm 5 mps 755 mmHg 72%
    07:00 +2°C° 0 mm 5 mps 755 mmHg 71%
    08:00 +3°C° 0 mm 4 mps 755 mmHg 70%
    09:00 +5°C° 0 mm 4 mps 754 mmHg 63%
    10:00 +7°C° 0 mm 4 mps 754 mmHg 56%
    11:00 +10°C° 0 mm 4 mps 753 mmHg 54%
    12:00 +11°C° 0 mm 4 mps 753 mmHg 55%
    13:00 +11°C° 0 mm 4 mps 752 mmHg 55%
    14:00 +11°C° 0 mm 4 mps 751 mmHg 56%
    15:00 +10°C° 0 mm 3 mps 751 mmHg 64%
    16:00 +8°C° 0 mm 3 mps 751 mmHg 72%
    17:00 +5°C° 0 mm 3 mps 751 mmHg 82%
    18:00 +5°C° 0 mm 3 mps 751 mmHg 77%
    19:00 +5°C° 0 mm 3 mps 750 mmHg 73%
    20:00 +6°C° 0 mm 2 mps 750 mmHg 68%
    21:00 +6°C° 0 mm 2 mps 750 mmHg 65%
    22:00 +6°C° 0 mm 2 mps 750 mmHg 63%
    23:00 +6°C° 0 mm 2 mps 749 mmHg 61%

    Tomorrow, 2 June, Tuesday

    Time Temperature Precipitation Wind Pressure Humidity
    00:00 +6°C° 0 mm 2 mps 749 mmHg 62%
    01:00 +6°C° 0 mm 2 mps 749 mmHg 63%
    02:00 +5°C° 0 mm 2 mps 749 mmHg 64%
    03:00 +5°C° 0 mm 2 mps 748 mmHg 65%
    04:00 +5°C° 0 mm 2 mps 748 mmHg 66%
    05:00 +5°C° 0 mm 2 mps 748 mmHg 67%
    06:00 +5°C° 0 mm 2 mps 748 mmHg 67%
    07:00 +6°C° 0 mm 2 mps 748 mmHg 67%
    08:00 +6°C° 0 mm 2 mps 748 mmHg 68%
    09:00 +8°C° 0 mm 2 mps 748 mmHg 63%
    10:00 +11°C° 0 mm 1 mps 747 mmHg 58%
    11:00 +14°C° 0 mm 1 mps 747 mmHg 53%
    12:00 +14°C° 0 mm 2 mps 747 mmHg 54%
    13:00 +14°C° 0 mm 2 mps 747 mmHg 56%
    14:00 +14°C° 0 mm 3 mps 746 mmHg 57%
    15:00 +13°C° 0 mm 2 mps 747 mmHg 61%
    16:00 +12°C° 0 mm 2 mps 747 mmHg 65%
    17:00 +9°C° 0 mm 2 mps 747 mmHg 70%
    18:00 +9°C° 0 mm 2 mps 747 mmHg 70%
    19:00 +9°C° 0 mm 2 mps 747 mmHg 70%
    20:00 +9°C° 0 mm 2 mps 747 mmHg 71%
    21:00 +9°C° 0 mm 2 mps 747 mmHg 72%
    22:00 +8°C° 0 mm 2 mps 747 mmHg 74%
    23:00 +8°C° 0 mm 2 mps 746 mmHg 75%

    Day after tomorrow, 3 June, Wednesday

    Time Temperature Precipitation Wind Pressure Humidity
    00:00 +8°C° 0 mm 2 mps 746 mmHg 76%
    01:00 +8°C° 0 mm 2 mps 745 mmHg 76%
    02:00 +8°C° 0 mm 3 mps 745 mmHg 77%
    03:00 +8°C° 0 mm 3 mps 744 mmHg 76%
    04:00 +8°C° 0 mm 3 mps 744 mmHg 75%
    05:00 +8°C° 0 mm 3 mps 743 mmHg 75%
    06:00 +8°C° 0 mm 4 mps 742 mmHg 73%
    07:00 +8°C° 0 mm 4 mps 742 mmHg 72%
    08:00 +8°C° 0 mm 4 mps 741 mmHg 71%
    09:00 +10°C° 0 mm 4 mps 741 mmHg 68%
    10:00 +12°C° 0 mm 4 mps 741 mmHg 65%
    11:00 +13°C° 0 mm 3 mps 740 mmHg 61%
    12:00 +13°C° 0 mm 3 mps 739 mmHg 63%
    13:00 +13°C° 0 mm 3 mps 739 mmHg 64%
    14:00 +14°C° 0 mm 3 mps 738 mmHg 66%
    15:00 +12°C° 0 mm 3 mps 738 mmHg 73%
    16:00 +10°C° 0 mm 2 mps 738 mmHg 81%
    17:00 +9°C° 0 mm 2 mps 738 mmHg 88%
    18:00 +8°C° 0 mm 2 mps 737 mmHg 91%
    19:00 +8°C° 0 mm 2 mps 737 mmHg 94%
    20:00 +7°C° 0 mm 3 mps 737 mmHg 97%
    21:00 +8°C° 0 mm 3 mps 737 mmHg 97%
    22:00 +9°C° 0 mm 2 mps 737 mmHg 97%
    23:00 +9°C° 0 mm 2 mps 737 mmHg 97%

    4 June, Thursday

    Time Temperature Precipitation Wind Pressure Humidity
    00:00 +9°C° 0.1 mm 3 mps 738 mmHg 97%
    01:00 +9°C° 0.1 mm 3 mps 738 mmHg 97%
    02:00 +9°C° 0.1 mm 3 mps 738 mmHg 97%
    03:00 +8°C° 1.1 mm 5 mps 738 mmHg 97%
    04:00 +8°C° 1.1 mm 6 mps 739 mmHg 97%
    05:00 +7°C° 1.1 mm 8 mps 739 mmHg 97%
    06:00 +6°C° 1.4 mm 8 mps 740 mmHg 97%
    07:00 +6°C° 1.4 mm 8 mps 741 mmHg 96%
    08:00 +5°C° 1.4 mm 8 mps 742 mmHg 96%
    09:00 +5°C° 0.7 mm 8 mps 743 mmHg 96%
    10:00 +5°C° 0.7 mm 8 mps 744 mmHg 95%
    11:00 +4°C° 0.7 mm 8 mps 745 mmHg 94%
    12:00 +4°C° 0.2 mm 8 mps 745 mmHg 92%
    13:00 +2°C° 0.2 mm 8 mps 746 mmHg 91%
    14:00 +2°C° 0.2 mm 8 mps 746 mmHg 89%
    15:00 +1°C° 0.1 mm 8 mps 747 mmHg 89%
    16:00 +2°C° 0.1 mm 7 mps 747 mmHg 89%
    17:00 +1°C° 0.1 mm 6 mps 748 mmHg 89%
    18:00 +1°C° 0.1 mm 6 mps 748 mmHg 91%
    19:00 +1°C° 0.1 mm 5 mps 749 mmHg 93%
    20:00 0°C° 0.1 mm 5 mps 749 mmHg 95%
    21:00 0°C° 0.1 mm 4 mps 749 mmHg 95%
    22:00 +1°C° 0.1 mm 4 mps 750 mmHg 95%
    23:00 +1°C° 0.1 mm 4 mps 750 mmHg 95%

    5 June, Friday

    Time Temperature Precipitation Wind Pressure Humidity
    00:00 +1°C° 0.1 mm 3 mps 749 mmHg 94%
    01:00 +1°C° 0.1 mm 3 mps 749 mmHg 94%
    02:00 +1°C° 0.1 mm 3 mps 749 mmHg 94%
    03:00 0°C° 0 mm 3 mps 749 mmHg 93%
    04:00 -1°C° 0 mm 3 mps 748 mmHg 92%
    05:00 -1°C° 0 mm 3 mps 748 mmHg 90%
    06:00 -1°C° 0 mm 3 mps 748 mmHg 89%
    07:00 -1°C° 0 mm 2 mps 748 mmHg 88%
    08:00 -1°C° 0 mm 2 mps 748 mmHg 86%
    09:00 +2°C° 0 mm 2 mps 748 mmHg 80%
    10:00 +4°C° 0 mm 2 mps 747 mmHg 74%
    11:00 +6°C° 0 mm 1 mps 747 mmHg 68%
    12:00 +6°C° 0 mm 1 mps 746 mmHg 66%
    13:00 +7°C° 0 mm 1 mps 745 mmHg 64%
    14:00 +7°C° 0 mm 1 mps 745 mmHg 63%
    15:00 +5°C° 0 mm 2 mps 745 mmHg 68%
    16:00 +4°C° 0 mm 2 mps 744 mmHg 72%
    17:00 +3°C° 0 mm 2 mps 744 mmHg 77%
    18:00 +3°C° 0 mm 2 mps 744 mmHg 78%
    19:00 +3°C° 0 mm 2 mps 744 mmHg 79%
    20:00 +3°C° 0 mm 2 mps 744 mmHg 80%
    21:00 +2°C° 0 mm 3 mps 744 mmHg 78%
    22:00 +3°C° 0 mm 3 mps 744 mmHg 75%
    23:00 +3°C° 0 mm 3 mps 743 mmHg 73%

    6 June, Saturday

    Time Temperature Precipitation Wind Pressure Humidity
    00:00 +3°C° 0.2 mm 4 mps 744 mmHg 80%
    01:00 +3°C° 0.2 mm 6 mps 744 mmHg 87%
    02:00 +3°C° 0.2 mm 7 mps 745 mmHg 94%
    03:00 +2°C° 0 mm 7 mps 745 mmHg 92%
    04:00 +2°C° 0 mm 7 mps 746 mmHg 91%
    05:00 0°C° 0 mm 7 mps 746 mmHg 90%
    06:00 0°C° 0 mm 7 mps 747 mmHg 89%
    07:00 0°C° 0 mm 7 mps 747 mmHg 88%
    08:00 -1°C° 0 mm 7 mps 747 mmHg 87%
    09:00 0°C° 0 mm 7 mps 748 mmHg 84%
    10:00 +2°C° 0 mm 7 mps 748 mmHg 80%
    11:00 +3°C° 0 mm 7 mps 748 mmHg 77%
    12:00 +3°C° 0 mm 6 mps 748 mmHg 73%
    13:00 +4°C° 0 mm 6 mps 748 mmHg 69%
    14:00 +4°C° 0 mm 6 mps 748 mmHg 66%
    15:00 +3°C° 0 mm 5 mps 748 mmHg 71%
    16:00 +2°C° 0 mm 5 mps 748 mmHg 77%
    17:00 +1°C° 0 mm 5 mps 748 mmHg 83%
    18:00 0°C° 0 mm 4 mps 749 mmHg 82%
    19:00 +1°C° 0 mm 3 mps 749 mmHg 82%
    20:00 +1°C° 0 mm 3 mps 749 mmHg 81%
    21:00 +1°C° 0 mm 3 mps 749 mmHg 80%
    22:00 +1°C° 0 mm 3 mps 749 mmHg 80%
    23:00 0°C° 0 mm 3 mps 749 mmHg 79%
    Show more